Regional Weather Roundup
Issued by NWS

Home | Current Version | Previous Version | Text Only | Print | Product List | Glossary On
Versions: 1 2 3 4 5 6 7 8 9 10 11 12 13 14 15 16 17 18 19 20 21 22 23 24 25 26 27 28 29 30 31 32 33 34 35 36 37 38 39 40 41 42 43 44 45 46 47 48 49 50
000
ASUS46 KLOX 220712
RWRCA

SOUTHERN CALIFORNIA WEATHER ROUNDUP
NATIONAL WEATHER SERVICE OXNARD CALIFORNIA
1200 AM PDT WED OCT 22 2014

NOTE: "FAIR" INDICATES FEW OR NO CLOUDS BELOW 12,000 FEET WITH NO
SIGNIFICANT WEATHER AND/OR OBSTRUCTIONS TO VISIBILITY.

  -  STATIONS PRECEEDED BY AN ASTERISK (*) ARE NOT NWS OR FAA
     STATIONS AND ARE NOT SUBJECT TO NWS AND FAA QUALITY CONTROL.

CAZ041-042-087-220800-
LA AND ORANGE COUNTY COASTAL AREAS


CITY           SKY/WX    TMP DP  RH WIND       PRES   REMARKS
L.A. DOWNTOWN  CLEAR     66  61  84 CALM      29.88R
L.A. AIRPORT   CLEAR     66  62  87 CALM      29.88R
LONG BEACH     CLEAR     64  60  87 CALM      29.88S

CITY           SKY/WX    TMP DP  RH WIND       PRES   REMARKS
AVALON           N/A     59 N/A N/A MISG        N/A
FULLERTON      CLEAR     64  56  75 CALM      29.87S
*GETTY CENTER    N/A     64  45  48 N14         N/A
HAWTHORNE      CLEAR     67  61  81 CALM      29.88R
*LEO CARRILLO    N/A     63  49  61 N7          N/A
*LOS ALAMITOS  FAIR      61  59  92 NE2       29.88S
*REDONDO BEACH   N/A     60  54  81 CALM      29.87S
SANTA ANA      CLEAR     67  61  81 E5        29.88R
STA MONICA APT CLEAR     65  59  81 CALM      29.88S
*UCLA            N/A     63  57  82 E5        29.86S

$$

CAZ547-548-048-220800-
LA COUNTY VALLEYS AND INLAND EMPIRE


CITY           SKY/WX    TMP DP  RH WIND       PRES   REMARKS
BURBANK        CLEAR     63  52  67 CALM      29.89R
VAN NUYS       CLEAR     65  51  60 CALM      29.89R

CITY           SKY/WX    TMP DP  RH WIND       PRES   REMARKS
CORONA AIRPORT SUNNY     54  50  86 CALM      29.90R
*CHATSWORTH      N/A     62  53  73 CALM      29.86S
CHINO          CLEAR     58  55  90 CALM      29.91R FOG
MARCH AFB      CLEAR     57  55  90 NW5       29.92R
*NORTHRIDGE      N/A     63  50  63 NW1         N/A
ONTARIO        PTCLDY    64  56  75 CALM      29.90R
*PASADENA        N/A     64  57  77 CALM        N/A
RIVERSIDE      CLEAR     63  56  78 CALM      29.90R
SAN BERNARDINO NOT AVBL
*SAN RAFAEL HI   N/A     63  55  76 SW5         N/A
*SAUGUS          N/A     60  39  45 NE5         N/A
*WHITEMAN AP   NOT AVBL
*WHITTIER HILL   N/A     62  58  88 CALM        N/A
*WOODLAND HILL   N/A     59  50  72 SW1         N/A

$$

CAZ054-055-220800-
LA AND SAN BERNARDINO COUNTY MOUNTAINS


CITY           SKY/WX    TMP DP  RH WIND       PRES   REMARKS
*BIG BEAR AIRP MOSUNNY   36  10  35 CALM      30.16R
MT WILSON NWS    N/A     57  14  18 MISG        N/A
SANDBERG       CLEAR     51  39  63 N30G38    30.05S

$$

CAZ028-029-059-060-099-220800-
ANTELOPE VALLEY AND SURROUNDING AREAS


CITY           SKY/WX    TMP DP  RH WIND       PRES   REMARKS
LANCASTER      CLEAR     59  41  51 W16       29.96S
PALMDALE       CLEAR     56  35  45 S6        29.97R
*POPPY PARK      N/A     61  38  43 W21G35      N/A

CITY           SKY/WX    TMP DP  RH WIND       PRES   REMARKS
29 PALMS       CLEAR     65  31  28 NW7       29.98R
BARSTOW/DAGGET CLEAR     63  35  35 W7        29.93R
BISHOP         PTCLDY    53  19  26 NW8       30.02R
CHINA LAKE     CLEAR     58  34  40 SW6       29.91S
EDWARDS AFB    CLEAR     55  41  58 SW7       29.94R
MOJAVE         FAIR      59  39  47 W13G23    29.96S
NEEDLES        CLEAR     74  44  34 S6        29.83S
VICTORVILLE    CLEAR     55  34  44 CALM      29.97F

$$

CAZ039-040-220800-
VENTURA AND SANTA BARBARA COUNTY COAST


CITY           SKY/WX    TMP DP  RH WIND       PRES   REMARKS
CAMARILLO      CLEAR     60  53  77 CALM      29.87S
OXNARD AIRPORT CLEAR     62  52  69 E5        29.87S
*POINT MUGU    LGT RAIN  62  57  83 N5        29.88R
SBA APT/GOLETA CLEAR     58  53  84 CALM      29.87S
*SANTA BARBARA   N/A     63  56  79 CALM      29.94F
*VENTURA         N/A     61  52  71 N3        29.90S

$$

CAZ044-045-220800-
VENTURA COUNTY VALLEYS


CITY           SKY/WX    TMP DP  RH WIND       PRES   REMARKS
*SIMI VALLEY     N/A     59  50  73 CALM      29.85S
*OJAI            N/A     53  48  83 CALM      29.83S
*FILLMORE        N/A     56  50  79 CALM      29.80R

$$

CAZ053-220800-
VENTURA COUNTY MOUNTAINS


CITY           SKY/WX    TMP DP  RH WIND       PRES   REMARKS
*LOCKWOOD VLY    N/A     36  34  93 MISG        N/A
*ROSE VALLEY     N/A     39  32  75 MISG        N/A

$$

CAZ034-035-036-220800-
CENTRAL COAST AND SANTA YNEZ VALLEY


CITY           SKY/WX    TMP DP  RH WIND       PRES   REMARKS
SAN LUIS OBISP CLEAR     67  40  37 N8        29.97R
SANTA MARIA    CLEAR     62  42  47 NW12      29.95S

CITY           SKY/WX    TMP DP  RH WIND       PRES   REMARKS
*CAL POLY SLO    N/A     66  43  42 NW9G22      N/A
*LOMPOC        CLEAR     61  45  55 W5        29.93S
*PISMO BEACH     N/A     60  44  54 NE2       29.97S
*SANTA YNEZ    FAIR      54  45  71 E5        29.92F

$$

CAZ037-038-051-220800-
SAN LUIS OBISPO COUNTY INTERIOR AND CUYAMA VALLEY


CITY           SKY/WX    TMP DP  RH WIND       PRES   REMARKS
*CUYAMA          N/A     47  36  64 E1        30.00F
PASO ROBLES    CLEAR     57  47  69 NW6       30.03R

$$

CAZ032-033-061-220800-
SOUTHERN DESERTS


CITY           SKY/WX    TMP DP  RH WIND       PRES   REMARKS
BLYTHE         CLEAR     74  50  42 CALM      29.80S
IMPERIAL       CLEAR     74  48  39 W5        29.78S
PALM SPRINGS   CLEAR     78  45  30 NW3       29.83S
THERMAL        CLEAR     64  46  52 N3        29.77S

$$

ELSEWHERE ACROSS THE WESTERN UNITED STATES AND MEXICO


CITY           SKY/WX    TMP DP  RH WIND       PRES   REMARKS
DENVER, CO     LGT RAIN  57  42  57 W13       30.00R
GRAND CANYON,  MOCLDY    37  30  75 NE3       30.16R
HONOLULU, HI   MOCLDY    79  73  83 E3        30.00R
KAHULUI, MAUI  MOCLDY    79  68  69 SE3       30.01R
LAKE TAHOE, CA PTCLDY    35  29  78 CALM      30.13S
LAS VEGAS, NV  PTCLDY    69  22  16 S12       29.85S
MAMMOTH LAKES, FAIR      32  12  43 W7        30.15S WCI  26
MEXICO CITY, M MOCLDY    59  52  77 NW7       30.25F
PHOENIX, AZ    CLEAR     74  53  48 E3        29.85R
PORTLAND, OR   LGT RAIN  56  51  84 SE14      29.85F
RENO, NV       MOCLDY    47  30  51 CALM      30.11S
SALT LAKE CITY PTCLDY    44  36  73 W5        30.09S
SAN DIEGO, CA  PTCLDY    67  61  81 CALM      29.90S
SAN FRANCISCO, PTCLDY    63  57  81 W9        30.05S
SAN JOSE, CA   CLEAR     56  47  71 CALM      30.06S
SEATTLE, WA    CLOUDY    58  45  62 SE10      29.75F
TIJUANA, MEX   CLEAR     61  57  88 W5        29.92S

$$

STATION/POSITION TIME  TEMP    WIND        PRES    VSBY  WAVE
                       AIR SEA DIR/SP/G                  HT/PER
                 (UTC) (F)     (DEG/KT/KT) (MB)    (MI)  (FT/S)
POINT ARGUELLO B NOT AVBL
WEST SANTA BARBA 0700   64 63  330/ 23/ 27 1011.5R        12/14
POINT CONCEPTION NOT AVBL
EAST SANTA BARBA 0500   68 65  320/  6/  8 1011.1R
SANTA MONICA BAY 0700   70 71   10/  4/  6 1011.2R         6/ 9



USA.gov is the U.S. government's official web portal to all federal, state and local government web resources and services.